NKS1322 KSFO-KLAX

Flight info

Callsign NKS1322
Flight time 0h 58m
Altitude 37000
Route WESLA5 SUSEY EBAYE BURGL IRNMN2
Aircraft A20N/M-SDE2E3FGHIRWXY/LB1

Departure

Time 2026-04-25 05:46
Airport San Francisco International Airport (KSFO)

Arrival

Time 2026-04-25 06:44
Airport Los Angeles International Airport (KLAX)
Time Latitude Longitude Altitude Speed Heading
2026-04-25 05:30 37.61711 -122.38035 21 ft 0 kts 276°
2026-04-25 05:36 37.61711 -122.38028 21 ft 2 kts 279°
2026-04-25 05:36 37.61708 -122.38007 21 ft 2 kts 279°
2026-04-25 05:36 37.61704 -122.37987 23 ft 3 kts 301°
2026-04-25 05:36 37.61692 -122.37971 24 ft 3 kts 340°
2026-04-25 05:37 37.61674 -122.37969 21 ft 3 kts 20°
2026-04-25 05:37 37.61663 -122.37977 21 ft 0 kts 44°
2026-04-25 05:38 37.61665 -122.37975 20 ft 0 kts 49°
2026-04-25 05:39 37.61669 -122.37971 20 ft 4 kts 41°
2026-04-25 05:39 37.61740 -122.37898 23 ft 18 kts 40°
2026-04-25 05:39 37.61784 -122.37839 22 ft 9 kts 57°
2026-04-25 05:39 37.61793 -122.37754 21 ft 10 kts 105°
2026-04-25 05:40 37.61759 -122.37638 23 ft 19 kts 110°
2026-04-25 05:40 37.61692 -122.37444 23 ft 29 kts 116°
2026-04-25 05:40 37.61595 -122.37215 28 ft 26 kts 118°
2026-04-25 05:40 37.61520 -122.37037 26 ft 24 kts 116°
2026-04-25 05:41 37.61421 -122.36859 23 ft 27 kts 128°
2026-04-25 05:41 37.61329 -122.36688 21 ft 21 kts 121°
2026-04-25 05:41 37.61252 -122.36514 18 ft 24 kts 117°
2026-04-25 05:41 37.61175 -122.36324 21 ft 25 kts 117°
2026-04-25 05:42 37.61094 -122.36131 22 ft 19 kts 118°
2026-04-25 05:42 37.61050 -122.35997 23 ft 12 kts 92°
2026-04-25 05:42 37.61050 -122.35991 23 ft 0 kts 89°
2026-04-25 05:44 37.61051 -122.35986 23 ft 2 kts 84°
2026-04-25 05:45 37.61082 -122.35918 22 ft 21 kts 40°
2026-04-25 05:45 37.61214 -122.35941 21 ft 23 kts 296°
2026-04-25 05:45 37.61378 -122.36332 16 ft 96 kts 299°
2026-04-25 05:45 37.61852 -122.37460 113 ft 182 kts 297°
2026-04-25 05:46 37.62423 -122.38807 570 ft 172 kts 297°
2026-04-25 05:46 37.63019 -122.40169 823 ft 178 kts 298°
2026-04-25 05:46 37.63645 -122.41556 1257 ft 194 kts 298°
2026-04-25 05:46 37.64370 -122.43129 1717 ft 227 kts 298°
2026-04-25 05:47 37.65158 -122.44960 2399 ft 242 kts 297°
2026-04-25 05:47 37.65941 -122.46793 3615 ft 233 kts 298°
2026-04-25 05:47 37.66563 -122.48683 4639 ft 239 kts 277°
2026-04-25 05:47 37.66239 -122.50744 5869 ft 248 kts 240°
2026-04-25 05:48 37.64965 -122.52212 7126 ft 255 kts 203°
2026-04-25 05:48 37.63247 -122.52477 8380 ft 256 kts 168°
2026-04-25 05:48 37.61596 -122.51632 9663 ft 258 kts 152°
2026-04-25 05:48 37.59958 -122.50654 10801 ft 264 kts 156°
2026-04-25 05:49 37.58213 -122.49854 11906 ft 270 kts 162°
2026-04-25 05:49 37.56384 -122.49227 13044 ft 277 kts 166°
2026-04-25 05:49 37.54481 -122.48703 14141 ft 283 kts 168°
2026-04-25 05:49 37.52524 -122.48238 15175 ft 289 kts 170°
2026-04-25 05:50 37.50563 -122.47809 16204 ft 294 kts 171°
2026-04-25 05:50 37.48566 -122.47193 17216 ft 301 kts 155°
2026-04-25 05:50 37.46923 -122.45550 18160 ft 306 kts 132°
2026-04-25 05:50 37.45562 -122.43479 18719 ft 311 kts 129°
2026-04-25 05:51 37.44200 -122.41354 18958 ft 313 kts 130°
2026-04-25 05:51 37.42792 -122.39254 18996 ft 315 kts 131°
2026-04-25 05:51 37.41344 -122.37179 19000 ft 316 kts 132°
2026-04-25 05:51 37.39871 -122.35120 18999 ft 317 kts 133°
2026-04-25 05:52 37.38387 -122.33074 18996 ft 317 kts 133°
2026-04-25 05:52 37.36876 -122.31006 19004 ft 329 kts 133°
2026-04-25 05:52 37.35295 -122.28855 18999 ft 339 kts 133°
2026-04-25 05:52 37.33689 -122.26672 18998 ft 342 kts 134°
2026-04-25 05:53 37.32094 -122.24509 18997 ft 343 kts 134°
2026-04-25 05:53 37.30468 -122.22307 18994 ft 344 kts 134°
2026-04-25 05:53 37.28840 -122.20103 18995 ft 344 kts 134°
2026-04-25 05:53 37.27217 -122.17909 18994 ft 345 kts 134°
2026-04-25 05:54 37.25583 -122.15701 18995 ft 345 kts 134°
2026-04-25 05:54 37.23948 -122.13494 18994 ft 345 kts 134°
2026-04-25 05:54 37.20669 -122.09072 19301 ft 347 kts 134°
2026-04-25 05:55 37.19017 -122.06846 19868 ft 350 kts 135°
2026-04-25 05:55 37.17376 -122.04636 20466 ft 352 kts 135°
2026-04-25 05:55 37.15716 -122.02403 21072 ft 357 kts 135°
2026-04-25 05:55 37.14023 -122.00125 21697 ft 361 kts 136°
2026-04-25 05:56 37.12300 -121.97810 22349 ft 366 kts 136°
2026-04-25 05:56 37.10551 -121.95463 23012 ft 370 kts 137°
2026-04-25 05:56 37.08781 -121.93089 23669 ft 376 kts 137°
2026-04-25 05:56 37.06984 -121.90680 24248 ft 381 kts 137°
2026-04-25 05:57 37.05166 -121.88246 24838 ft 385 kts 138°
2026-04-25 05:57 37.03329 -121.85786 25425 ft 389 kts 138°
2026-04-25 05:57 37.01471 -121.83301 26028 ft 393 kts 138°
2026-04-25 05:57 36.99594 -121.80791 26650 ft 397 kts 139°
2026-04-25 05:58 36.97722 -121.78291 27275 ft 401 kts 139°
2026-04-25 05:58 36.95807 -121.75735 27924 ft 404 kts 140°
2026-04-25 05:58 36.93880 -121.73165 28584 ft 406 kts 140°
2026-04-25 05:58 36.91986 -121.70639 29243 ft 408 kts 140°
2026-04-25 05:59 36.90011 -121.68008 29942 ft 409 kts 141°
2026-04-25 05:59 36.88064 -121.65416 30554 ft 408 kts 141°
2026-04-25 05:59 36.86125 -121.62837 31160 ft 408 kts 141°
2026-04-25 05:59 36.84184 -121.60257 31787 ft 406 kts 141°
2026-04-25 06:00 36.82254 -121.57693 32425 ft 404 kts 141°
2026-04-25 06:00 36.80359 -121.55178 33056 ft 401 kts 141°
2026-04-25 06:00 36.78453 -121.52649 33660 ft 400 kts 141°
2026-04-25 06:00 36.76545 -121.50125 34103 ft 401 kts 141°
2026-04-25 06:01 36.74626 -121.47588 34497 ft 402 kts 141°
2026-04-25 06:01 36.72704 -121.45049 34907 ft 403 kts 142°
2026-04-25 06:01 36.70782 -121.42508 35314 ft 403 kts 142°
2026-04-25 06:01 36.68861 -121.39972 35709 ft 403 kts 142°
2026-04-25 06:02 36.66932 -121.37428 36096 ft 404 kts 142°
2026-04-25 06:02 36.65004 -121.34887 36471 ft 404 kts 142°
2026-04-25 06:02 36.63067 -121.32337 36773 ft 407 kts 143°
2026-04-25 06:02 36.61100 -121.29754 36943 ft 414 kts 142°
2026-04-25 06:03 36.57076 -121.24479 37019 ft 433 kts 142°
2026-04-25 06:03 36.52829 -121.18911 37011 ft 453 kts 142°
2026-04-25 06:04 36.48434 -121.13146 37009 ft 462 kts 141°
2026-04-25 06:04 36.43951 -121.07283 37003 ft 479 kts 141°
2026-04-25 06:05 36.39454 -121.01065 36995 ft 488 kts 138°
2026-04-25 06:05 36.35078 -120.94697 36993 ft 488 kts 137°
2026-04-25 06:06 36.30676 -120.88296 36991 ft 488 kts 138°
2026-04-25 06:06 36.26262 -120.81947 36981 ft 488 kts 138°
2026-04-25 06:07 36.21823 -120.75601 36978 ft 488 kts 139°
2026-04-25 06:07 36.17377 -120.69262 36977 ft 488 kts 139°
2026-04-25 06:08 36.12948 -120.62959 36972 ft 488 kts 139°
2026-04-25 06:08 36.08494 -120.56629 36967 ft 488 kts 139°
2026-04-25 06:09 36.04036 -120.50303 36975 ft 488 kts 139°
2026-04-25 06:09 35.99571 -120.43982 36968 ft 488 kts 139°
2026-04-25 06:10 35.95104 -120.37671 36978 ft 488 kts 139°
2026-04-25 06:10 35.90670 -120.31414 36968 ft 488 kts 139°
2026-04-25 06:11 35.86051 -120.25355 36964 ft 472 kts 153°
2026-04-25 06:11 35.80575 -120.21132 36956 ft 464 kts 159°
2026-04-25 06:12 35.75028 -120.17067 36958 ft 465 kts 158°
2026-04-25 06:12 35.69503 -120.12948 36962 ft 464 kts 158°
2026-04-25 06:13 35.64031 -120.08838 36959 ft 464 kts 158°
2026-04-25 06:14 35.55783 -120.02617 36961 ft 463 kts 158°
2026-04-25 06:14 35.50296 -119.98486 36953 ft 462 kts 158°
2026-04-25 06:15 35.45741 -119.95063 36956 ft 462 kts 158°
2026-04-25 06:15 35.40263 -119.90950 36962 ft 461 kts 159°
2026-04-25 06:16 35.34793 -119.86851 36961 ft 460 kts 159°
2026-04-25 06:16 35.29364 -119.82799 36949 ft 461 kts 158°
2026-04-25 06:17 35.24149 -119.78065 36939 ft 468 kts 152°
2026-04-25 06:17 35.21589 -119.75645 36618 ft 462 kts 152°
2026-04-25 06:17 35.19058 -119.73257 36134 ft 457 kts 152°
2026-04-25 06:17 35.16546 -119.70900 35659 ft 453 kts 152°
2026-04-25 06:18 35.14056 -119.68570 35156 ft 448 kts 152°
2026-04-25 06:18 35.11591 -119.66268 34669 ft 444 kts 152°
2026-04-25 06:18 35.09148 -119.63991 34187 ft 439 kts 151°
2026-04-25 06:18 35.06764 -119.61771 33688 ft 435 kts 151°
2026-04-25 06:19 35.04367 -119.59542 33147 ft 431 kts 151°
2026-04-25 06:19 35.01994 -119.57338 32612 ft 427 kts 151°
2026-04-25 06:19 34.99645 -119.55157 32088 ft 423 kts 150°
2026-04-25 06:19 34.97316 -119.52997 31582 ft 419 kts 150°
2026-04-25 06:20 34.95000 -119.50850 31083 ft 416 kts 150°
2026-04-25 06:20 34.92704 -119.48724 30596 ft 413 kts 150°
2026-04-25 06:20 34.90413 -119.46633 30112 ft 410 kts 150°
2026-04-25 06:20 34.88165 -119.44614 29584 ft 407 kts 150°
2026-04-25 06:21 34.85885 -119.42574 29017 ft 404 kts 150°
2026-04-25 06:21 34.83626 -119.40554 28491 ft 401 kts 150°
2026-04-25 06:21 34.81383 -119.38550 27954 ft 399 kts 150°
2026-04-25 06:21 34.79154 -119.36559 27431 ft 396 kts 150°
2026-04-25 06:22 34.76938 -119.34580 26928 ft 394 kts 150°
2026-04-25 06:22 34.74735 -119.32622 26426 ft 391 kts 151°
2026-04-25 06:22 34.72540 -119.30695 25936 ft 388 kts 151°
2026-04-25 06:22 34.70366 -119.28795 25444 ft 386 kts 151°
2026-04-25 06:23 34.68232 -119.26931 24979 ft 383 kts 151°
2026-04-25 06:23 34.66078 -119.25051 24504 ft 380 kts 151°
2026-04-25 06:23 34.63935 -119.23191 24050 ft 377 kts 151°
2026-04-25 06:23 34.61806 -119.21354 23602 ft 374 kts 151°
2026-04-25 06:24 34.59693 -119.19531 23086 ft 372 kts 151°
2026-04-25 06:24 34.57591 -119.17720 22550 ft 369 kts 151°
2026-04-25 06:24 34.55514 -119.15910 22025 ft 366 kts 150°
2026-04-25 06:24 34.53464 -119.14098 21527 ft 363 kts 150°
2026-04-25 06:25 34.51445 -119.12308 21033 ft 361 kts 150°
2026-04-25 06:25 34.49422 -119.10518 20540 ft 358 kts 150°
2026-04-25 06:25 34.47417 -119.08744 20056 ft 355 kts 150°
2026-04-25 06:25 34.45496 -119.07045 19602 ft 353 kts 150°
2026-04-25 06:26 34.43497 -119.05291 19122 ft 350 kts 150°
2026-04-25 06:26 34.41529 -119.03583 18653 ft 347 kts 150°
2026-04-25 06:26 34.39574 -119.01889 18201 ft 344 kts 150°
2026-04-25 06:26 34.37634 -119.00209 17665 ft 341 kts 150°
2026-04-25 06:27 34.35714 -118.98548 17151 ft 338 kts 150°
2026-04-25 06:27 34.33819 -118.96884 16650 ft 336 kts 149°
2026-04-25 06:27 34.31962 -118.95208 16147 ft 334 kts 148°
2026-04-25 06:27 34.30115 -118.93531 15651 ft 331 kts 148°
2026-04-25 06:28 34.28312 -118.91895 15162 ft 328 kts 148°
2026-04-25 06:28 34.26493 -118.90245 14696 ft 326 kts 148°
2026-04-25 06:28 34.24693 -118.88601 14225 ft 323 kts 148°
2026-04-25 06:28 34.22905 -118.86960 13763 ft 323 kts 148°
2026-04-25 06:29 34.21148 -118.85347 13246 ft 323 kts 147°
2026-04-25 06:29 34.19347 -118.83665 12716 ft 322 kts 142°
2026-04-25 06:29 34.18043 -118.81455 12232 ft 326 kts 118°
2026-04-25 06:29 34.17156 -118.78955 11972 ft 323 kts 114°
2026-04-25 06:30 34.16333 -118.76434 11800 ft 322 kts 114°
2026-04-25 06:30 34.15434 -118.74016 11647 ft 318 kts 126°
2026-04-25 06:30 34.13966 -118.72125 11401 ft 303 kts 148°
2026-04-25 06:30 34.12175 -118.70890 11117 ft 292 kts 158°
2026-04-25 06:31 34.10340 -118.69902 10737 ft 289 kts 162°
2026-04-25 06:31 34.08486 -118.69051 10349 ft 286 kts 163°
2026-04-25 06:31 34.06626 -118.68233 9972 ft 284 kts 163°
2026-04-25 06:31 34.04772 -118.67415 9483 ft 283 kts 162°
2026-04-25 06:32 34.02966 -118.66497 9080 ft 281 kts 155°
2026-04-25 06:32 34.01464 -118.64999 8987 ft 285 kts 128°
2026-04-25 06:32 34.00662 -118.62857 8900 ft 287 kts 102°
2026-04-25 06:32 34.00628 -118.60494 8617 ft 280 kts 81°
2026-04-25 06:33 34.01017 -118.58227 8309 ft 273 kts 76°
2026-04-25 06:33 34.01406 -118.56019 8004 ft 267 kts 83°
2026-04-25 06:33 34.01516 -118.53812 7705 ft 261 kts 89°
2026-04-25 06:33 34.01507 -118.51653 7409 ft 257 kts 92°
2026-04-25 06:34 34.01443 -118.49521 7112 ft 252 kts 92°
2026-04-25 06:34 34.01373 -118.47443 6994 ft 244 kts 92°
2026-04-25 06:34 34.01326 -118.45407 6960 ft 244 kts 89°
2026-04-25 06:34 34.01390 -118.43366 6747 ft 244 kts 85°
2026-04-25 06:35 34.01605 -118.41355 6548 ft 240 kts 81°
2026-04-25 06:35 34.01861 -118.39399 6322 ft 240 kts 80°
2026-04-25 06:35 34.02125 -118.37413 6076 ft 240 kts 80°
2026-04-25 06:35 34.02391 -118.35425 5991 ft 240 kts 80°
2026-04-25 06:36 34.02657 -118.33441 5988 ft 240 kts 80°
2026-04-25 06:36 34.02923 -118.31461 5997 ft 239 kts 80°
2026-04-25 06:36 34.03189 -118.29483 5999 ft 239 kts 80°
2026-04-25 06:36 34.03454 -118.27506 5962 ft 239 kts 81°
2026-04-25 06:37 34.03683 -118.25532 5713 ft 237 kts 82°
2026-04-25 06:37 34.03894 -118.23559 5437 ft 237 kts 82°
2026-04-25 06:37 34.04098 -118.21655 5170 ft 236 kts 82°
2026-04-25 06:37 34.04314 -118.19677 4893 ft 234 kts 82°
2026-04-25 06:38 34.04523 -118.17780 4624 ft 228 kts 82°
2026-04-25 06:38 34.04727 -118.15914 4328 ft 221 kts 82°
2026-04-25 06:38 34.04665 -118.14115 4027 ft 213 kts 109°
2026-04-25 06:38 34.03829 -118.12714 3759 ft 205 kts 144°
2026-04-25 06:39 34.02534 -118.12224 3600 ft 192 kts 183°
2026-04-25 06:39 34.01333 -118.12754 3593 ft 184 kts 214°
2026-04-25 06:39 34.00329 -118.13699 3596 ft 183 kts 220°
2026-04-25 06:39 33.99361 -118.14710 3599 ft 186 kts 221°
2026-04-25 06:40 33.98381 -118.15743 3582 ft 188 kts 221°
2026-04-25 06:40 33.97397 -118.16781 3445 ft 188 kts 221°
2026-04-25 06:40 33.96440 -118.17825 3299 ft 189 kts 228°
2026-04-25 06:40 33.95791 -118.19189 3149 ft 189 kts 250°
2026-04-25 06:41 33.95514 -118.20728 2998 ft 189 kts 262°
2026-04-25 06:41 33.95362 -118.22292 2738 ft 186 kts 263°
2026-04-25 06:41 33.95213 -118.23824 2463 ft 181 kts 263°
2026-04-25 06:41 33.95074 -118.25273 2289 ft 169 kts 261°
2026-04-25 06:42 33.94921 -118.26612 2212 ft 161 kts 261°
2026-04-25 06:42 33.94771 -118.27964 1929 ft 160 kts 262°
2026-04-25 06:42 33.94638 -118.29297 1652 ft 162 kts 263°
2026-04-25 06:42 33.94516 -118.30621 1372 ft 160 kts 263°
2026-04-25 06:43 33.94388 -118.31932 1166 ft 153 kts 262°
2026-04-25 06:43 33.94252 -118.33184 954 ft 149 kts 262°
2026-04-25 06:43 33.94133 -118.34410 769 ft 145 kts 262°
2026-04-25 06:43 33.94009 -118.35599 592 ft 142 kts 263°
2026-04-25 06:44 33.93892 -118.36753 435 ft 136 kts 261°
2026-04-25 06:44 33.93776 -118.37860 267 ft 131 kts 263°
2026-04-25 06:44 33.93669 -118.38906 130 ft 118 kts 263°
2026-04-25 06:44 33.93615 -118.39479 129 ft 30 kts 263°
2026-04-25 06:45 33.93604 -118.39637 129 ft 17 kts 269°
2026-04-25 06:45 33.93614 -118.39784 128 ft 19 kts 279°
2026-04-25 06:45 33.93648 -118.39880 126 ft 0 kts 300°
2026-04-25 06:45 33.93650 -118.39890 127 ft 2 kts 279°
2026-04-25 06:46 33.93653 -118.39916 126 ft 4 kts 282°
2026-04-25 06:46 33.93662 -118.39963 128 ft 7 kts 281°
2026-04-25 06:46 33.93664 -118.39973 128 ft 1 kts 279°
2026-04-25 06:46 33.93665 -118.39989 126 ft 3 kts 274°
2026-04-25 06:47 33.93666 -118.40025 127 ft 6 kts 269°
2026-04-25 06:47 33.93662 -118.40083 127 ft 8 kts 265°
2026-04-25 06:47 33.93656 -118.40167 129 ft 13 kts 263°
2026-04-25 06:47 33.93649 -118.40312 129 ft 22 kts 282°
2026-04-25 06:48 33.93759 -118.40429 126 ft 21 kts 355°
2026-04-25 06:48 33.93835 -118.40513 125 ft 13 kts 310°
2026-04-25 06:48 33.93930 -118.40537 126 ft 15 kts 354°
2026-04-25 06:48 33.94044 -118.40553 124 ft 18 kts 352°
2026-04-25 06:49 33.94113 -118.40594 125 ft 8 kts 279°
2026-04-25 06:49 33.94111 -118.40627 124 ft 0 kts 261°